CZ-3C DEB, 40206

Orbit data source: Space-Track

CZ-3C DEB, 40206 is space debris in HEO originally from a launch on Fri, 24 Feb 2012 UTC launched from the Xichang Space Center, China (XSC). Debris objects in space refer to the collection of defunct objects orbiting the Earth. Examples of debris include non-operational satellites, rocket bodies, and fragments generated from explosions, collisions, or faulty payload assembly.

Loading next visibility...
Identifier
40206, 2012-008R
Orbit
HEO
Country
Flag of CNCN / PRC
Related business
Manufacturer
CALT
Mission
Spacecraft
Bus & Motor
Unknown
Mass
Unknown
Launch date (UTC)
2012-02-24 (14 years ago)
Launch vehicle
Unknown
Launch site
Xichang Space Center, China (XSC)
Object type
Payload
Rocket body
Debris
Shape & HBR
Unknown shape, 0.1 m
Radar Cross Section
Medium (>0.1 m² and <1 m²)

Expand to show TLE details & history
Last TLE update: 2 days ago

TLE from 2 days ago
0 CZ-3C DEB
1 40206U 12008R   25293.58092030  .00002579  00000-0  17753-1 0  9998
2 40206  17.7096  86.5303 7257058 167.2112 233.3873  2.18989614 88590
Epoch: 2025-10-20T13:56Z
TLE epoch observation values (Epoch: 2025-10-20T13:56:31.513Z)
Latitude
-0.00012°
Longitude
-151.85148°
Altitude
34,132.074 km
Speed
1.941 km/s
True Right ascension
05h 46m 14s
True Declination
0° 00' 00"
Sunlit
Object was in daylight at epoch
Visualization orbit readout
Latitude
Unknown
Longitude
Unknown
Altitude
Unknown
Speed
Unknown
Apparent Right ascension
Unknown
Apparent Declination
Unknown
Sunlit
N/A
Visualization observer readout
Local Sidereal Time
01:22:13
Azimuth
Unknown
Elevation
Unknown
Doppler factor
Unknown
Orbital elements
Apogee altitude
36,856.698 km
Perigee altitude
493.871 km
Semi-major axis
25,053.422 km
Eccentricity
0.72571
Inclination
17.7096°
RAAN
86.5303°
Arg. of periapsis
167.2112°
True anomaly
192.87325°
Mean anomaly
233.3873°
Eccentric anomaly
211.60002°
Mean motion
0.54732 °/min
Orbital period
657.75 mins
BSTAR
0.017753
Loading maneuver chart data...
Computing Atmospheric mass density...
Loading historical data...
Loading historical data...
Loading historical data...
Loading historical data...
Loading historical data...
Loading historical data...
Loading historical data...

Documentation

Showing up to 5 results
|